Date String (YYYY-MM-DD hh:mm:ss) UTC,Instrument flags,absolute air pressure of the measurement (hPa),sample flow rate (lpm),inlet stack bypass flow (lpm),air temperature of the measurement (°C),ambient temperature measured by the external sensor (°C),aerosol sample conditioner tube jacket temperature (°C),OPC LED temperature (°C),internal box temperature (°C),relative humidity of the measurement (%),span deviation,mass concentration of particles derived from Lorenz-Mie calculation of OPC scattering (μg/m³),mass concentration of particles derived from Lorenz-Mie calculation of OPC scattering (μg/m³),mass concentration of particles derived from Lorenz-Mie calculation of OPC scattering (μg/m³)
DateTimeUTC,F1_M11,P_M11,Q1_M11,Q2_M11,T1_M11,T2_M11,T3_M11,T4_M11,T5_M11,U1_M11,ZSPAN_M11,X0_M11,X2_M11,X1_M11
2024-02-26 22:00:00,SystemResetWarning,0815.4,5.00,000.00,024.1,023.4,000.0,032.4,025.9,07.7,0000.0,0005.83,0001.84,0000.77
2024-02-26 22:01:00,SystemResetWarning,0815.4,5.00,000.00,024.1,023.4,000.0,032.4,025.9,07.8,0000.0,0005.79,0001.85,0000.78
2024-02-26 22:02:00,SystemResetWarning,0815.4,5.00,000.00,024.1,023.4,000.0,032.4,025.9,07.8,0000.0,0006.00,0001.79,0000.77
2024-02-26 22:03:00,SystemResetWarning,0815.5,5.00,000.00,024.2,023.4,000.0,032.4,025.9,07.7,0000.0,0006.04,0001.79,0000.77
2024-02-26 22:04:00,SystemResetWarning,0815.5,5.00,000.00,024.2,023.4,000.0,032.4,025.9,07.6,0000.0,0005.99,0001.76,0000.76
2024-02-26 22:05:00,SystemResetWarning,0815.3,5.00,000.00,024.2,023.4,000.0,032.4,025.9,07.8,0000.0,0006.58,0001.77,0000.76
2024-02-26 22:06:00,SystemResetWarning,0815.3,4.99,000.00,024.2,023.4,000.0,032.4,025.9,07.7,0000.0,0006.49,0001.72,0000.77
2024-02-26 22:07:00,SystemResetWarning,0815.3,5.01,000.00,024.2,023.4,000.0,032.4,025.9,07.9,0000.0,0005.43,0001.65,0000.75
2024-02-26 22:08:00,SystemResetWarning,0815.4,5.01,000.00,024.2,023.4,000.0,032.4,025.9,07.9,0000.0,0005.24,0001.61,0000.74
2024-02-26 22:09:00,SystemResetWarning,0815.3,5.01,000.00,024.2,023.4,000.0,032.4,025.9,08.1,0000.0,0006.13,0001.63,0000.75
2024-02-26 22:10:00,SystemResetWarning,0815.5,4.99,000.00,024.2,023.4,000.0,032.5,025.9,08.0,0000.0,0006.06,0001.53,0000.74
2024-02-26 22:11:00,SystemResetWarning,0815.6,4.99,000.00,024.2,023.4,000.0,032.4,025.9,07.9,0000.0,0006.02,0001.50,0000.74
2024-02-26 22:12:00,SystemResetWarning,0815.5,5.00,000.00,024.2,023.4,000.0,032.4,025.9,07.9,0000.0,0005.82,0001.46,0000.73
2024-02-26 22:13:00,SystemResetWarning,0815.5,5.00,000.00,024.2,023.4,000.0,032.5,026.0,08.0,0000.0,0004.96,0001.40,0000.73
2024-02-26 22:14:00,SystemResetWarning,0815.4,5.00,000.00,024.2,023.4,000.0,032.5,025.9,08.0,0000.0,0004.96,0001.41,0000.74
2024-02-26 22:15:00,SystemResetWarning,0815.5,5.00,000.00,024.2,023.4,000.0,032.5,025.9,08.1,0000.0,0004.97,0001.41,0000.74
2024-02-26 22:16:00,SystemResetWarning,0815.4,5.00,000.00,024.2,023.4,000.0,032.5,026.0,08.3,0000.0,0005.07,0001.38,0000.74
2024-02-26 22:17:00,SystemResetWarning,0815.5,4.99,000.00,024.2,023.4,000.0,032.5,026.0,08.0,0000.0,0005.30,0001.33,0000.74
2024-02-26 22:18:00,SystemResetWarning,0815.5,5.00,000.00,024.2,023.4,000.0,032.5,026.0,08.0,0000.0,0005.65,0001.31,0000.74
2024-02-26 22:19:00,SystemResetWarning,0815.5,5.00,000.00,024.2,023.4,000.0,032.5,025.9,08.1,0000.0,0005.78,0001.41,0000.75
2024-02-26 22:20:00,SystemResetWarning,0815.5,5.01,000.00,024.2,023.5,000.0,032.5,026.0,08.2,0000.0,0005.08,0001.43,0000.75
2024-02-26 22:21:00,SystemResetWarning,0815.6,5.00,000.00,024.2,023.5,000.0,032.5,026.0,08.1,0000.0,0005.97,0001.47,0000.76
2024-02-26 22:22:00,SystemResetWarning,0815.6,5.00,000.00,024.2,023.5,000.0,032.5,026.0,08.0,0000.0,0006.05,0001.50,0000.75
2024-02-26 22:23:00,SystemResetWarning,0815.6,5.01,000.00,024.2,023.5,000.0,032.5,026.0,08.0,0000.0,0006.22,0001.54,0000.75
2024-02-26 22:24:00,SystemResetWarning,0815.6,5.00,000.00,024.2,023.5,000.0,032.5,026.0,07.9,0000.0,0006.33,0001.55,0000.75
2024-02-26 22:25:00,SystemResetWarning,0815.6,5.00,000.00,024.2,023.5,000.0,032.5,026.0,08.1,0000.0,0007.35,0001.57,0000.75
2024-02-26 22:26:00,SystemResetWarning,0815.6,5.00,000.00,024.2,023.5,000.0,032.5,026.0,08.1,0000.0,0007.70,0001.58,0000.74
2024-02-26 22:27:00,SystemResetWarning,0815.7,5.00,000.00,024.2,023.5,000.0,032.5,026.0,08.1,0000.0,0007.51,0001.60,0000.74
2024-02-26 22:28:00,SystemResetWarning,0815.7,4.99,000.00,024.2,023.5,000.0,032.5,026.0,08.2,0000.0,0007.04,0001.62,0000.75
2024-02-26 22:29:00,SystemResetWarning,0815.6,4.99,000.00,024.2,023.5,000.0,032.5,026.0,08.2,0000.0,0006.81,0001.63,0000.75
2024-02-26 22:30:00,SystemResetWarning,0815.7,5.00,000.00,024.3,023.5,000.0,032.5,026.0,08.0,0000.0,0006.68,0001.55,0000.74
2024-02-26 22:31:00,SystemResetWarning,0815.6,5.00,000.00,024.3,023.5,000.0,032.5,026.0,08.0,0000.0,0006.56,0001.50,0000.74
2024-02-26 22:32:00,SystemResetWarning,0815.6,5.01,000.00,024.3,023.5,000.0,032.5,026.0,08.1,0000.0,0005.68,0001.52,0000.73
2024-02-26 22:33:00,SystemResetWarning,0815.6,5.01,000.00,024.3,023.5,000.0,032.5,026.0,08.0,0000.0,0006.26,0001.55,0000.74
2024-02-26 22:34:00,SystemResetWarning,0815.6,5.01,000.00,024.3,023.5,000.0,032.6,026.0,08.1,0000.0,0007.32,0001.59,0000.74
2024-02-26 22:35:00,SystemResetWarning,0815.6,5.00,000.00,024.3,023.5,000.0,032.6,026.0,08.2,0000.0,0007.56,0001.59,0000.74
2024-02-26 22:36:00,SystemResetWarning,0815.6,5.00,000.00,024.3,023.5,000.0,032.6,026.0,08.3,0000.0,0006.52,0001.57,0000.74
2024-02-26 22:37:00,SystemResetWarning,0815.7,4.99,000.00,024.3,023.5,000.0,032.6,026.0,08.1,0000.0,0006.17,0001.54,0000.74
2024-02-26 22:38:00,SystemResetWarning,0815.6,5.00,000.00,024.3,023.5,000.0,032.6,026.0,08.1,0000.0,0005.79,0001.49,0000.73
2024-02-26 22:39:00,SystemResetWarning,0815.6,5.00,000.00,024.3,023.5,000.0,032.6,026.1,07.8,0000.0,0005.74,0001.47,0000.71
2024-02-26 22:40:00,SystemResetWarning,0815.7,5.00,000.00,024.3,023.5,000.0,032.6,026.1,07.8,0000.0,0005.78,0001.46,0000.70
2024-02-26 22:41:00,SystemResetWarning,0815.7,5.00,000.00,024.3,023.5,000.0,032.6,026.1,08.0,0000.0,0005.71,0001.45,0000.71
2024-02-26 22:42:00,SystemResetWarning,0815.6,5.00,000.00,024.3,023.5,000.0,032.6,026.1,07.8,0000.0,0005.84,0001.47,0000.72
2024-02-26 22:43:00,SystemResetWarning,0815.5,5.01,000.00,024.3,023.6,000.0,032.6,026.1,07.4,0000.0,0005.96,0001.49,0000.72
2024-02-26 22:44:00,SystemResetWarning,0815.5,5.00,000.00,024.3,023.6,000.0,032.6,026.1,07.6,0000.0,0006.39,0001.44,0000.70
2024-02-26 22:45:00,SystemResetWarning,0815.5,5.01,000.00,024.3,023.6,000.0,032.6,026.1,07.8,0000.0,0005.34,0001.36,0000.69
2024-02-26 22:46:00,SystemResetWarning,0815.5,5.00,000.00,024.3,023.6,000.0,032.6,026.1,07.7,0000.0,0004.93,0001.36,0000.69
2024-02-26 22:47:00,SystemResetWarning,0815.4,5.00,000.00,024.4,023.6,000.0,032.6,026.1,07.6,0000.0,0005.01,0001.39,0000.69
2024-02-26 22:48:00,SystemResetWarning,0815.3,4.99,000.00,024.4,023.6,000.0,032.6,026.1,07.7,0000.0,0005.47,0001.40,0000.69
2024-02-26 22:49:00,SystemResetWarning,0815.4,5.00,000.00,024.4,023.6,000.0,032.6,026.1,07.7,0000.0,0005.50,0001.42,0000.69
2024-02-26 22:50:00,SystemResetWarning,0815.5,5.01,000.00,024.4,023.6,000.0,032.6,026.1,07.8,0000.0,0005.59,0001.45,0000.69
2024-02-26 22:51:00,SystemResetWarning,0815.3,5.01,000.00,024.4,023.6,000.0,032.6,026.1,07.8,0000.0,0005.21,0001.41,0000.70
2024-02-26 22:52:00,SystemResetWarning,0815.3,5.00,000.00,024.4,023.6,000.0,032.6,026.1,07.5,0000.0,0005.02,0001.40,0000.69
2024-02-26 22:53:00,SystemResetWarning,0815.4,5.00,000.00,024.4,023.6,000.0,032.7,026.1,07.3,0000.0,0004.89,0001.39,0000.69
2024-02-26 22:54:00,SystemResetWarning,0815.3,5.00,000.00,024.4,023.6,000.0,032.6,026.1,07.5,0000.0,0004.87,0001.38,0000.68
2024-02-26 22:55:00,SystemResetWarning,0815.3,4.99,000.00,024.4,023.6,000.0,032.7,026.2,07.6,0000.0,0004.50,0001.37,0000.68
2024-02-26 22:56:00,SystemResetWarning,0815.3,5.00,000.00,024.4,023.6,000.0,032.7,026.2,07.6,0000.0,0003.80,0001.40,0000.69
2024-02-26 22:57:00,SystemResetWarning,0815.4,5.01,000.00,024.4,023.6,000.0,032.7,026.2,07.6,0000.0,0003.51,0001.40,0000.71
2024-02-26 22:58:00,SystemResetWarning,0815.3,5.01,000.00,024.4,023.6,000.0,032.7,026.2,07.6,0000.0,0003.50,0001.43,0000.72
2024-02-26 22:59:00,SystemResetWarning,0815.3,5.01,000.00,024.4,023.6,000.0,032.7,026.2,07.6,0000.0,0003.39,0001.44,0000.72
